Content
SEND FEEDBACK

Daily
Averages
Monthly
Summary
Canada

ST. SHOTTS, NEWFOUNDLAND


Home > North America > Canada > Newfoundland
Elevation: 99 feet     Latitude: 46 39N     Longitude: 053 04W

WEATHER
 
SELECT A DAY
Number of Records: 106,746;   Date Range: 1/1/95 - 9/19/14
 
SHARE

PRINT THIS DATA

[ ← Previous Day ]
WEATHER ALMANAC - JANUARY 23, 2013
[ Next Day → ]
[ °C ]   °F
Weather ElementAverageHighLow
Temperature21.8 °F24.4 °F (11:30 am)18.3 °F (3:30 am)
Dewpoint18.3 °F22 °F (8:30 pm)11 °F (2:30 pm)
Humidity85.9 %96 % (1:30 am)47 % (2:30 pm)
Barometer29.57 in29.65 in (10:30 am)29.42 in (1:30 am)
Wind Speed25.4 mph34.5 mph (11:30 pm)
Wind Gust44.9 mph (11:30 pm)
Weather ElementAverage
Wind DirectionW (266.9 °)

Weather ElementTotal
Precipitation---
Heating Degree Days43.7 (Base 65)
Averaged from 29 records on January 23, 2013
WEATHER CONDITIONS BREAKOUT
WIND DIRECTION BREAKOUT
WEATHER BY HOUR - JANUARY 23, 2013
[ °C ]   °F
Local TimeTemperatureDewpointHumidityBarometerVisibilityWind DirectionWind SpeedGust SpeedPrecipitationEventsConditions
1:30 AM20.3 °F19.4 °F96 %29.42 inWNW (290°)20.7 mph
2:30 AM21.0 °F20.0 °F96 %29.48 inWNW (290°)26.5 mph
2:30 AM21.4 °F20.3 °F96 %29.48 inWNW (290°)26.5 mph33.4 mph
3:30 AM18.3 °F17.1 °F95 %29.52 inWNW (290°)23.0 mph29.9 mph
4:30 AM21.2 °F19.8 °F94 %29.54 inWNW (290°)24.2 mph32.2 mph
5:30 AM22.0 °F20.0 °F87 %29.56 inWest (280°)19.6 mph
5:30 AM21.6 °F19.8 °F93 %29.56 inWest (280°)19.6 mph
6:30 AM22.8 °F20.5 °F91 %29.59 inWest (280°)18.4 mph
7:30 AM21.6 °F18.5 °F88 %29.60 inWest (280°)16.1 mph
8:30 AM20.0 °F19.0 °F95 %29.62 inWNW (290°)19.6 mph
8:30 AM20.3 °F19.2 °F96 %29.62 inWNW (290°)19.6 mph
9:30 AM21.4 °F20.1 °F95 %29.64 inWest (280°)18.4 mph27.6 mph
10:30 AM21.2 °F19.8 °F94 %29.65 inWest (280°)18.4 mph
11:30 AM24.4 °F19.0 °F80 %29.64 inWest (260°)27.6 mph33.4 mph
11:30 AM24.0 °F19.0 °F74 %29.64 inWest (260°)27.6 mph
1:30 PM22.1 °F12.9 °F68 %29.60 inWest (260°)26.5 mph33.4 mph
2:30 PM23.0 °F11.0 °F47 %29.60 inWest (260°)29.9 mph
2:30 PM23.0 °F11.1 °F60 %29.60 inWest (260°)29.9 mph40.3 mph
3:30 PM21.9 °F12.2 °F66 %29.61 inWSW (250°)31.1 mph40.3 mph
4:30 PM22.6 °F17.1 °F79 %29.60 inSW (230°)26.5 mph34.5 mph
5:30 PM24.0 °F15.0 °F57 %29.57 inWSW (240°)25.3 mph
6:30 PM23.2 °F17.4 °F79 %29.56 inSW (230°)25.3 mph
7:30 PM21.7 °F20.7 °F96 %29.56 inWSW (240°)27.6 mph
8:30 PM23.0 °F22.0 °F93 %29.55 inWSW (250°)26.5 mph
8:30 PM22.8 °F21.7 °F96 %29.55 inWSW (250°)26.5 mph34.5 mph
9:30 PM20.8 °F19.8 °F96 %29.55 inWest (260°)32.2 mph40.3 mph
10:30 PM21.6 °F20.7 °F96 %29.54 inWest (260°)33.4 mph42.6 mph
11:30 PM20.0 °F19.0 °F92 %29.54 inWest (260°)34.5 mph
11:30 PM19.8 °F18.7 °F96 %29.54 inWest (260°)34.5 mph44.9 mph
Hourly data recorded from CWRA, located miles away from St. Shotts, Newfoundland







STORIES FROM OUR PARTNERS